STARLINK-5703, 55593

Orbit data source: Space-Track

STARLINK-5703, 55593 is a payload satellite owned by SpaceX/Seattle (US) in LEO that was launched on Sun, 12 Feb 2023 UTC via an FALCON 9 launch vehicle from the Air Force Eastern Test Range (AFETR). Payload-class satellites include a variety of spacecraft equipped with specific instruments for various scientific and technological missions. These include communications satellites like Starlink; space stations such as the ISS; scientific satellites like the Hubble; Earth observation satellites from companies like Planet Labs, Umbra, and HawkEye 360; GPS; miniature CubeSats for education and research; and military/defense satellites.

Loading next visibility...
Identifier
55593, 2023-020AA
Orbit
LEO
Country
Flag of USUS
Related business
Manufacturer
SpaceX/Seattle
Mission
Operational Commercial Communications
Bus & Motor
STARLINK, Unknown motor
Mass
305 kg wet, ~290 kg dry
Launch date (UTC)
2023-02-12 (3 years ago)
Launch vehicle
FALCON 9
Launch site
Air Force Eastern Test Range (AFETR)
Object type
Payload
Rocket body
Debris
Shape & HBR
Box + 1 Pan, 10.1 m
Radar Cross Section
13.562 m², Large (>1 m²)

Expand to show TLE details & history
Last TLE update: 2 days ago

TLE from 2 days ago
0 STARLINK-5703
1 55593U 23020AA  26170.99761500 -.00000105  00000-0  57273-5 0  9993
2 55593  42.9996 147.0614 0001437 261.1698  98.8991 15.27580132184561
Epoch: 2026-06-19T23:56Z
TLE epoch observation values (Epoch: 2026-06-19T23:56:33.936Z)
Latitude
-0.00004°
Longitude
-120.29859°
Altitude
482.977 km
Speed
7.626 km/s
True Right ascension
09h 48m 14s
True Declination
0° 00' 00"
Sunlit
Object was in daylight at epoch
Visualization orbit readout
Latitude
Unknown
Longitude
Unknown
Altitude
Unknown
Speed
Unknown
Apparent Right ascension
Unknown
Apparent Declination
Unknown
Sunlit
N/A
Visualization observer readout
Local Sidereal Time
21:38:19
Azimuth
Unknown
Elevation
Unknown
Doppler factor
Unknown
Orbital elements
Apogee altitude
485.98 km
Perigee altitude
484.008 km
Semi-major axis
6,863.131 km
Eccentricity
0.00014
Inclination
42.9996°
RAAN
147.0614°
Arg. of periapsis
261.1698°
True anomaly
98.91537°
Mean anomaly
98.8991°
Eccentric anomaly
98.90723°
Mean motion
3.81733 °/min
Orbital period
94.31 mins
BSTAR
0.0000057273
Loading maneuver chart data...
Computing Atmospheric mass density...
Loading historical data...
Loading historical data...
Loading historical data...
Loading historical data...
Loading historical data...
Loading historical data...
Loading historical data...

Documentation

Showing up to 5 results
|